STARLINK-31112, 58680

Orbit data source: Space-Track

STARLINK-31112, 58680 is a payload satellite owned by SpaceX/Seattle (US) in LEO that was launched on Fri, 29 Dec 2023 UTC via an FALCON 9 launch vehicle from the Air Force Eastern Test Range (AFETR). Payload-class satellites include a variety of spacecraft equipped with specific instruments for various scientific and technological missions. These include communications satellites like Starlink; space stations such as the ISS; scientific satellites like the Hubble; Earth observation satellites from companies like Planet Labs, Umbra, and HawkEye 360; GPS; miniature CubeSats for education and research; and military/defense satellites.

Loading next visibility...
Identifier
58680, 2023-211P
Orbit
LEO
Country
Flag of USUS
Related business
Manufacturer
SpaceX/Seattle
Mission
Operational Commercial Communications
Bus & Motor
STARLINK V2M, Unknown motor
Mass
730 kg wet, ~700 kg dry
Launch date (UTC)
2023-12-29 (2 years ago)
Launch vehicle
FALCON 9
Launch site
Air Force Eastern Test Range (AFETR)
Object type
Payload
Rocket body
Debris
Shape & HBR
Box + 2 Pan, 17.7 m
Radar Cross Section
33.884 m², Large (>1 m²)

Expand to show TLE details & history
Last TLE update: 2 days ago

TLE from 2 days ago
0 STARLINK-31112
1 58680U 23211P   26171.20438481  .00000176  00000-0  15919-4 0  9996
2 58680  43.0032 226.2667 0001319 274.0860  85.9841 15.27576006139325
Epoch: 2026-06-20T04:54Z
TLE epoch observation values (Epoch: 2026-06-20T04:54:18.847Z)
Latitude
-0.00002°
Longitude
-115.73421°
Altitude
482.774 km
Speed
7.626 km/s
True Right ascension
15h 05m 04s
True Declination
0° 00' 00"
Sunlit
Object was in full shadow at epoch
Visualization orbit readout
Latitude
Unknown
Longitude
Unknown
Altitude
Unknown
Speed
Unknown
Apparent Right ascension
Unknown
Apparent Declination
Unknown
Sunlit
N/A
Visualization observer readout
Local Sidereal Time
21:24:03
Azimuth
Unknown
Elevation
Unknown
Doppler factor
Unknown
Orbital elements
Apogee altitude
485.911 km
Perigee altitude
484.1 km
Semi-major axis
6,863.143 km
Eccentricity
0.00013
Inclination
43.0032°
RAAN
226.2667°
Arg. of periapsis
274.086°
True anomaly
85.99918°
Mean anomaly
85.9841°
Eccentric anomaly
85.99164°
Mean motion
3.81732 °/min
Orbital period
94.31 mins
BSTAR
0.000015919
Loading maneuver chart data...
Computing Atmospheric mass density...
Loading historical data...
Loading historical data...
Loading historical data...
Loading historical data...
Loading historical data...
Loading historical data...
Loading historical data...

Documentation

Showing up to 5 results
|